[[{"header":{"parameterUnit":"m.s-1","parameterCategory":1,"la1":30.2991,"la2":30.254,"lo1":-89.0895,"lo2":-89.0444,"dy":0.0017,"dx":0.0017,"nx":28,"ny":28,"refTime":"2023-11-05T03:00:00:Z","depth":0,"parameterNumber":2,"parameterNumberName":"U-component_of_WINDS"},"data":[0,0,0,0,0,0,0,0,0,0,0,0,0,0,0,0,0,0,0,0,0,0,0,0,0,0,0,0,0,0,0,0,0,0,0,0,0,0,0,0,0,0,0,0,0,0,0,0,0,0,0,0,0,0,0,0,0,0,0.5986,0.5986,0,0.5986,0.5986,0.5986,0.5988,0.5988,0.5988,0.5988,0.5989,0.5989,0.5989,0,0,0,0,0,0,0,0,0,0,0,0,0,0.5984,0.5984,0.5986,0.5986,0.5986,0.5986,0.5986,0.5986,0.5988,0.5988,0.5988,0.5988,0.5989,0.5989,0.5989,0,0,0,0,0,0,0,0,0,0,0,0,0,0.5984,0.5984,0.5986,0.5987,0.5987,0.5986,0.5986,0.5986,0.5988,0.5988,0.5988,0.5988,0.5989,0.5989,0.5989,0.5988,0,0,0.5989,0.5989,0,0,0,0,0,0,0,0,0.5984,0.5985,0.5986,0.5986,0.5987,0.5987,0.5986,0.5987,0.5988,0.5988,0.5988,0.5988,0.5988,0.5988,0.5988,0.5988,0.5988,0.5989,0.5989,0.5989,0.5989,0,0,0,0,0,0,0,0.5984,0.5984,0.5986,0.5986,0.5986,0.5986,0.5986,0.5986,0.5988,0.5988,0.5988,0.5988,0.5988,0.5988,0.5988,0.5988,0.5989,0.5989,0.5989,0.5989,0.5984,0.5984,0,0,0,0,0,0,0.5984,0.5984,0.5986,0.5986,0.5986,0.5986,0.5987,0.5987,0.5988,0.5988,0.5988,0.5988,0.5988,0.5988,0.5988,0.5986,0.5989,0.5989,0.5989,0.5984,0.5984,0.5984,0,0,0,0,0,0,0.5984,0.5984,0.5986,0.5985,0.5985,0.5986,0.5987,0.5987,0.5987,0.5988,0.5988,0.5988,0.5988,0.5989,0.5987,0.5986,0.5989,0.5989,0.5984,0.5984,0.5984,0.5981,0,0,0,0,0,0,0.5984,0.5984,0.5985,0.5985,0.5985,0.5985,0.5987,0.5987,0.5987,0.5987,0.5988,0.5988,0.5989,0.5987,0.5987,0.5986,0.5989,0.5985,0.5984,0.5984,0.5981,0.5981,0.5981,0,0,0,0,0,0.5984,0.5984,0.5985,0.5985,0.5986,0.5985,0.5985,0.5986,0.5987,0.5986,0.5987,0.5988,0.5986,0.5987,0.5987,0.5986,0.5985,0.5984,0.5984,0.5982,0.5981,0.5981,0,0,0,0,0,0,0.5984,0.5984,0.5985,0.5985,0.5985,0.5986,0.5985,0.5986,0.5986,0.5986,0.5987,0.5987,0.5985,0.5985,0.5987,0.5984,0.5985,0.5985,0.5983,0.5983,0.5982,0.5982,0.5989,0,0,0,0,0,0.5984,0.5984,0.5984,0.5984,0.5984,0.5985,0.5985,0.5985,0.5985,0.5985,0.5985,0.5985,0.5984,0.5984,0.5983,0.5981,0.5981,0.598,0.598,0.5979,0.5979,0.5976,0.5975,0.5983,0.5983,0.5983,0,0,0.5984,0.5984,0.5984,0.5984,0.5984,0.5983,0.5985,0.5984,0.5983,0.5985,0.5984,0.5984,0.5983,0.5981,0.5981,0.5981,0.5976,0.5979,0.5979,0.5978,0.5976,0.5975,0.5974,0.5983,0.5983,0.5983,0,0,0.5983,0.5984,0.5983,0.5983,0.5982,0.5982,0.5982,0.5982,0.5982,0.598,0.5981,0.598,0.5979,0.5978,0.5977,0.5974,0.5974,0.5974,0.5971,0.5968,0.5968,0.5967,0.5965,0.5964,0.5973,0.5973,0.5973,0,0.5983,0.5982,0.5983,0.5982,0.5981,0.5982,0.598,0.598,0.5979,0.5979,0.598,0.5977,0.5977,0.5974,0.5973,0.5973,0.5972,0.5974,0.5968,0.5967,0.5967,0.5964,0.5964,0.5973,0.5973,0.5973,0.5973,0,0.5981,0.598,0.598,0.5979,0.5978,0.5977,0.5976,0.5975,0.5975,0.5975,0.5972,0.5972,0.5971,0.597,0.597,0.5966,0.5967,0.5968,0.597,0.5966,0.5964,0.5963,0.5973,0.5973,0.5973,0.5973,0,0,0.5981,0.5979,0.5979,0.5977,0.5976,0.5975,0.5973,0.5971,0.597,0.5969,0.5967,0.5965,0.5965,0.5965,0.5965,0.5962,0.5958,0.5964,0.5963,0.5961,0.5951,0.595,0.5949,0.5958,0.5958,0.5958,0.5951,0,0.598,0.5977,0.5976,0.5973,0.5971,0.5971,0.5969,0.5968,0.5967,0.5965,0.5964,0.5962,0.5963,0.5962,0.596,0.5959,0.5956,0.5959,0.5955,0.5955,0.5954,0.5948,0.5947,0.5941,0.595,0.595,0.595,0,0.5978,0.5976,0.5973,0.597,0.5969,0.5967,0.5964,0.5963,0.596,0.596,0.5958,0.5958,0.5955,0.5956,0.5951,0.5954,0.5952,0.5951,0.595,0.595,0.5952,0.5946,0.5939,0.5938,0.5949,0.5949,0.5949,0,0.5977,0.5974,0.5971,0.597,0.5966,0.5965,0.5964,0.5961,0.5959,0.5957,0.5955,0.5952,0.5951,0.5948,0.5947,0.5948,0.5941,0.5943,0.594,0.594,0.5938,0.5938,0.593,0.5938,0.5938,0.5938,0.5938,0,0.5975,0.5972,0.597,0.5968,0.5965,0.5963,0.596,0.5959,0.5956,0.5953,0.5953,0.595,0.5949,0.5945,0.5944,0.5939,0.5939,0.5937,0.5937,0.5937,0.5937,0.5935,0.5935,0.5938,0.5938,0.5938,0.5938,0,0.5973,0.5972,0.5968,0.5965,0.5964,0.5961,0.5958,0.5956,0.5954,0.595,0.5949,0.5947,0.5942,0.5941,0.5936,0.5935,0.5929,0.5929,0.5929,0.5929,0.5925,0.5925,0.5915,0.5913,0.5923,0.5923,0.5923,0,0.5972,0.597,0.5966,0.5964,0.5962,0.5959,0.5956,0.5954,0.5952,0.5948,0.5946,0.5941,0.5938,0.5931,0.5928,0.5924,0.5924,0.592,0.5923,0.5922,0.5922,0.5922,0.5921,0.592,0.5919,0.5919,0.5919,0,0.5969,0.5968,0.5965,0.596,0.5958,0.5954,0.5951,0.5949,0.5947,0.5944,0.5939,0.5936,0.593,0.5925,0.5921,0.5918,0.5918,0.5918,0.5917,0.5917,0.5916,0.5915,0.5927,0.5919,0.5919,0.5919,0.5919,0.5919,0.5967,0.5964,0.596,0.5956,0.5953,0.595,0.5947,0.5944,0.594,0.5935,0.5934,0.5929,0.5924,0.5918,0.5915,0.591,0.5911,0.591,0.5909,0.5908,0.5907,0.5918,0.591,0.591,0.591,0.591,0.591,0,0.5963,0.596,0.5956,0.5951,0.5947,0.5947,0.5943,0.5939,0.5935,0.5931,0.5926,0.592,0.5915,0.5911,0.5906,0.5902,0.5902,0.5901,0.5901,0.59,0.5908,0.5909,0.5901,0.5901,0.5901,0.5901,0.5901,0.5901,0.5961,0.5955,0.5953,0.5946,0.5943,0.5937,0.5935,0.5931,0.5928,0.592,0.5916,0.5913,0.5909,0.5903,0.5897,0.5896,0.5894,0.5892,0.5891,0.5899,0.59,0.59,0.5901,0.5892,0.5892,0.5884,0.5884,0.5883]},{"header":{"parameterUnit":"m.s-1","parameterCategory":1,"la1":30.2991,"la2":30.254,"lo1":-89.0895,"lo2":-89.0444,"dy":0.0017,"dx":0.0017,"nx":28,"ny":28,"refTime":"2023-11-05T03:00:00:Z","depth":0,"parameterNumber":3,"parameterNumberName":"V-component_of_WINDS"},"data":[0,0,0,0,0,0,0,0,0,0,0,0,0,0,0,0,0,0,0,0,0,0,0,0,0,0,0,0,0,0,0,0,0,0,0,0,0,0,0,0,0,0,0,0,0,0,0,0,0,0,0,0,0,0,0,0,0,0,0.8529,0.8528,0,0.8472,0.8471,0.8471,0.8474,0.8475,0.8476,0.8476,0.8414,0.8411,0.8409,0,0,0,0,0,0,0,0,0,0,0,0,0,0.8635,0.8633,0.8529,0.8528,0.8527,0.8472,0.8471,0.8471,0.8474,0.8475,0.8476,0.8477,0.8415,0.8412,0.8409,0,0,0,0,0,0,0,0,0,0,0,0,0,0.8584,0.8632,0.8529,0.8522,0.8521,0.8472,0.8471,0.847,0.8474,0.8475,0.8476,0.8477,0.8415,0.8412,0.8408,0.8361,0,0,0.8397,0.8396,0,0,0,0,0,0,0,0,0.8587,0.858,0.8524,0.8523,0.8521,0.8481,0.8486,0.8433,0.8473,0.8491,0.8476,0.8478,0.8435,0.843,0.8416,0.8358,0.8355,0.8397,0.8395,0.8393,0.8392,0,0,0,0,0,0,0,0.8591,0.8583,0.8506,0.8523,0.8521,0.8521,0.8515,0.8476,0.8457,0.849,0.849,0.8484,0.8434,0.842,0.8415,0.8354,0.8397,0.8394,0.8391,0.839,0.8253,0.8251,0,0,0,0,0,0,0.8596,0.8586,0.8508,0.8504,0.8558,0.8518,0.8511,0.8493,0.8457,0.8453,0.8483,0.8484,0.8425,0.8419,0.8413,0.8353,0.8393,0.839,0.8388,0.8254,0.8253,0.8251,0,0,0,0,0,0,0.8598,0.8589,0.851,0.8545,0.8535,0.8515,0.8494,0.8491,0.8476,0.8452,0.8448,0.8471,0.8426,0.8418,0.8374,0.8351,0.8388,0.8385,0.8256,0.8254,0.8252,0.8235,0,0,0,0,0,0,0.8602,0.859,0.8573,0.8545,0.8533,0.8473,0.8493,0.8489,0.8471,0.8472,0.844,0.8436,0.8426,0.8379,0.837,0.8347,0.8382,0.8258,0.8255,0.8252,0.8238,0.8233,0.8229,0,0,0,0,0,0.8605,0.857,0.8572,0.8563,0.8511,0.8472,0.8465,0.8456,0.8469,0.8451,0.8435,0.8437,0.8356,0.8375,0.8364,0.834,0.8259,0.8256,0.8253,0.824,0.8234,0.8229,0,0,0,0,0,0,0.8594,0.8566,0.8568,0.8523,0.85,0.8473,0.8449,0.8451,0.8423,0.8425,0.8414,0.8406,0.8362,0.8347,0.8368,0.8291,0.8309,0.8303,0.8303,0.8297,0.8292,0.8296,0.8379,0,0,0,0,0,0.8587,0.8559,0.8535,0.8497,0.8486,0.847,0.8452,0.8448,0.8423,0.8413,0.8394,0.8368,0.8337,0.8316,0.8286,0.8237,0.8228,0.8214,0.821,0.8206,0.8201,0.8172,0.8165,0.824,0.824,0.824,0,0,0.857,0.8551,0.8534,0.8494,0.8476,0.8446,0.8461,0.8429,0.8406,0.8407,0.8364,0.835,0.8321,0.8273,0.8251,0.8259,0.8179,0.8202,0.82,0.8196,0.8168,0.8161,0.8154,0.8238,0.8238,0.8239,0,0,0.8524,0.8508,0.8474,0.8456,0.8429,0.8419,0.8411,0.8384,0.8374,0.8332,0.8332,0.8304,0.825,0.8229,0.8212,0.8158,0.8159,0.8149,0.8124,0.8096,0.809,0.8085,0.8064,0.8057,0.8144,0.8144,0.8144,0,0.8507,0.8462,0.8456,0.8423,0.8405,0.8408,0.8372,0.8354,0.8318,0.8305,0.8315,0.8248,0.8228,0.8175,0.8162,0.8149,0.8137,0.8151,0.8092,0.8087,0.8081,0.8061,0.8054,0.8143,0.8143,0.8143,0.8143,0,0.8441,0.8411,0.8386,0.8353,0.8332,0.8298,0.8285,0.8265,0.8262,0.825,0.8206,0.8183,0.8148,0.8135,0.8132,0.8081,0.8087,0.8095,0.8112,0.8073,0.8054,0.8046,0.8141,0.8142,0.8142,0.8142,0,0,0.8385,0.8349,0.834,0.8325,0.8295,0.827,0.8236,0.8203,0.8185,0.816,0.813,0.8085,0.8092,0.8072,0.8066,0.8042,0.7999,0.8052,0.8052,0.8042,0.794,0.7933,0.7924,0.8,0.7999,0.7998,0.7942,0,0.8335,0.8275,0.8269,0.8215,0.8185,0.8187,0.8157,0.8135,0.8123,0.8095,0.8082,0.8049,0.8062,0.805,0.8026,0.8009,0.7978,0.8014,0.797,0.7968,0.7975,0.7914,0.7907,0.7855,0.7934,0.7933,0.7932,0,0.8267,0.8242,0.8185,0.816,0.8147,0.812,0.8089,0.8063,0.8038,0.8031,0.8009,0.8006,0.7969,0.7989,0.7937,0.7961,0.7943,0.7932,0.793,0.7924,0.7946,0.7904,0.7838,0.7829,0.7921,0.7922,0.7922,0,0.8229,0.8181,0.8141,0.8128,0.8097,0.8078,0.8064,0.804,0.8021,0.7993,0.798,0.7948,0.793,0.7905,0.7894,0.791,0.7841,0.7861,0.7832,0.7832,0.7816,0.7816,0.7743,0.7808,0.7808,0.7808,0.7808,0,0.8172,0.8137,0.8123,0.8098,0.8058,0.8051,0.8011,0.7998,0.7977,0.7948,0.7948,0.7921,0.7908,0.7878,0.7869,0.7826,0.7819,0.781,0.7808,0.7809,0.781,0.7795,0.7797,0.7806,0.7807,0.7807,0.7807,0,0.8122,0.8112,0.8068,0.8043,0.8036,0.8007,0.7985,0.796,0.795,0.7913,0.7904,0.7886,0.7851,0.7838,0.7795,0.7789,0.7738,0.774,0.7747,0.7745,0.7717,0.7719,0.763,0.7617,0.7692,0.7692,0.7691,0,0.8086,0.8059,0.8031,0.8013,0.7999,0.7969,0.7949,0.7941,0.792,0.7889,0.7867,0.7833,0.7805,0.7748,0.773,0.7697,0.7697,0.7668,0.7691,0.7693,0.7693,0.7694,0.7691,0.7663,0.7662,0.7661,0.7661,0,0.802,0.8017,0.7989,0.796,0.7937,0.7913,0.7889,0.7874,0.7862,0.7839,0.7804,0.7782,0.7739,0.7703,0.767,0.7654,0.7654,0.7654,0.7645,0.7645,0.7649,0.7644,0.7732,0.7655,0.7656,0.7656,0.7657,0.7657,0.7974,0.795,0.7927,0.7896,0.7878,0.7856,0.7831,0.7818,0.7789,0.7754,0.7751,0.7713,0.7687,0.7642,0.7625,0.7593,0.7601,0.7589,0.7585,0.7582,0.7578,0.7656,0.7587,0.7588,0.7588,0.7588,0.7588,0,0.7907,0.7893,0.7865,0.7833,0.7808,0.7814,0.7788,0.7766,0.7733,0.771,0.7683,0.7642,0.7608,0.7588,0.7554,0.7533,0.7532,0.7524,0.7524,0.752,0.7575,0.7585,0.7525,0.7525,0.7525,0.7525,0.7525,0.7525,0.787,0.7828,0.7822,0.7771,0.7757,0.772,0.7705,0.7684,0.7666,0.7621,0.7593,0.7581,0.7559,0.7523,0.7492,0.7487,0.7473,0.7463,0.7459,0.751,0.7516,0.7522,0.7531,0.7461,0.7461,0.7406,0.7405,0.7405]}]]